RH
88 89 90 83 80 97 87 82 77 63 56 54 47 45 39 38 35 31 23 12 5 3 3 4 5 5 5 4 6 27 37 49
88 81 83 87 87 88 84 66 60 56 52 49 44 39 37 37 38 35 22 15 6 3 3 4 5 5 5 5 8 39 58 62
92 86 85 85 79 78 66 53 48 50 50 46 42 41 39 39 38 38 30 24 13 4 3 4 4 5 6 6 11 30 48 61
95 88 83 78 74 63 52 46 44 48 52 49 48 45 40 41 40 42 37 34 28 13 3 3 4 5 5 6 7 14 33 50
100 94 81 72 68 59 51 45 44 49 49 48 42 39 34 41 47 46 44 42 39 32 14 2 3 4 5 5 7 7 6 8
96 90 84 78 71 62 52 46 44 48 44 47 47 52 50 50 49 52 52 47 46 42 33 8 2 3 4 5 6 7 7 7
94 91 89 77 76 66 51 47 42 45 48 49 49 52 55 54 50 51 52 49 49 50 47 26 4 3 4 4 6 8 8 8
93 89 90 81 79 70 53 47 40 45 50 50 48 51 57 58 59 61 59 55 55 58 55 45 11 4 4 5 5 7 9 9
91 81 81 74 76 76 55 44 39 45 48 46 49 52 55 59 63 68 68 66 66 61 58 51 23 6 5 5 6 7 9 10
90 86 79 74 74 79 68 43 37 42 45 48 51 52 54 56 59 68 71 73 69 61 57 53 34 10 6 7 7 8 9 11
89 85 79 73 74 79 73 56 36 36 43 47 50 50 50 55 62 64 68 73 66 57 55 55 40 17 7 6 7 8 8 11
84 80 73 70 76 79 74 66 47 38 40 44 48 50 52 54 59 64 70 76 70 60 57 60 43 24 10 7 8 9 10 12
74 76 71 73 75 75 71 66 59 44 37 42 48 52 55 56 60 66 72 77 78 68 62 58 45 27 14 9 10 10 12 12
71 70 68 70 70 69 67 66 61 57 47 42 49 54 58 60 63 68 74 82 88 80 68 64 57 35 18 12 10 12 13 13
70 66 58 59 62 61 59 59 60 58 55 50 51 53 57 63 66 67 75 81 88 83 72 67 81 54 23 18 14 11 14 16
59 55 54 52 53 53 58 62 60 60 57 53 51 56 60 64 70 72 79 86 91 83 84 73 90 48 39 24 17 12 14 19
48 54 54 52 46 50 56 58 59 62 61 56 52 55 62 65 76 73 80 85 90 85 86 88 90 81 35 27 19 14 17 19
47 51 52 54 55 58 57 62 63 60 63 63 59 57 62 68 80 75 78 82 90 88 86 93 95 65 40 31 24 20 22 24
45 47 49 48 49 49 52 54 55 58 63 64 64 62 65 65 74 74 78 83 90 91 87 93 90 82 47 38 30 28 29 30
Wind_Speed
29 25 24 22 20 18 17 18 19 19 17 15 13 10 8 5 5 6 7 7 7 6 6 7 8 8 8 7 5 6 7 12
28 26 23 23 21 21 22 23 23 21 20 17 13 11 9 6 5 5 6 6 6 6 5 6 7 6 7 6 5 7 13 15
32 28 26 25 24 24 26 25 22 21 17 13 12 11 10 7 5 4 5 6 6 6 5 4 4 5 5 5 4 7 11 14
37 33 30 27 27 28 28 25 22 21 18 17 16 14 12 8 6 4 4 4 5 5 3 2 3 4 3 4 4 6 8 11
38 35 34 30 28 29 28 26 24 23 21 19 15 11 11 9 6 5 4 3 4 4 3 2 2 2 3 2 1 3 5 7
41 39 37 28 27 31 30 28 26 25 23 21 17 15 13 11 8 6 4 2 1 2 3 2 2 1 2 2 1 1 2 4
42 40 34 28 28 31 32 31 29 28 26 24 22 19 16 14 10 8 6 4 3 2 3 3 3 3 3 3 3 3 3 4
44 42 41 34 33 33 34 35 34 31 29 27 25 22 20 15 13 11 10 8 6 5 5 5 5 5 5 5 4 4 5 5
48 47 43 39 36 36 36 38 36 34 32 31 27 24 23 19 17 15 12 11 10 9 7 7 7 7 7 7 7 6 6 6
48 46 43 41 39 40 37 38 38 37 34 32 30 27 26 24 20 19 17 15 15 13 10 10 9 9 10 9 9 8 8 7
44 46 44 40 38 39 38 37 38 37 36 35 33 31 29 26 24 23 21 20 19 16 15 13 11 11 11 12 11 10 10 9
39 41 41 38 37 39 40 38 39 40 38 36 36 35 33 30 28 27 26 24 23 21 18 17 13 15 13 13 13 12 11 10
32 35 36 38 39 40 42 40 39 39 39 39 38 36 35 34 33 31 29 28 27 25 22 19 17 16 15 13 13 12 12 12
28 28 33 37 38 38 40 41 40 38 40 40 40 39 38 39 36 33 30 29 30 27 25 21 16 18 16 15 15 14 14 13
28 29 32 34 37 37 38 40 41 41 41 41 42 41 42 38 38 34 33 31 31 31 28 21 17 20 18 18 17 16 16 15
26 31 35 35 35 37 39 39 42 44 44 43 41 44 44 35 41 37 35 31 33 32 27 27 21 21 22 21 17 17 17 17
26 30 32 34 32 37 38 36 37 42 44 48 46 45 45 42 41 40 35 34 36 34 32 30 27 25 24 22 18 19 18 19
23 26 28 30 32 33 35 35 35 38 43 48 48 49 47 32 43 42 38 38 38 36 35 32 29 25 25 23 21 20 19 18
17 17 17 18 20 23 24 26 30 33 37 40 43 44 44 45 43 41 40 40 40 39 36 31 32 28 26 23 23 21 20 19
Wind_Direction
195 204 209 212 202 198 189 181 176 170 170 170 166 162 153 123 92 70 54 53 51 53 50 46 45 30 28 41 52 103 138 157
198 203 206 203 201 198 189 184 178 179 176 176 173 167 161 130 107 85 71 61 59 61 53 44 39 34 38 52 85 128 147 156
200 204 204 203 203 195 189 186 184 182 182 179 182 175 167 152 132 111 92 65 56 56 55 38 33 32 48 81 113 151 163 170
202 201 203 202 202 197 192 190 189 184 183 187 188 182 178 175 160 135 111 80 62 53 40 39 24 25 42 81 135 180 205 212
209 201 198 201 203 199 198 196 193 190 193 200 201 193 180 176 184 176 156 107 63 45 28 17 352 353 355 13 86 167 202 211
212 207 205 202 205 203 203 200 198 199 200 203 204 200 194 201 203 212 193 165 60 3 10 336 284 314 302 312 311 277 250 253
217 215 204 207 207 208 206 203 204 204 205 206 209 211 211 213 215 226 237 247 250 285 318 311 309 294 286 285 285 292 287 278
214 213 208 207 210 210 208 207 208 207 209 211 212 215 220 224 232 235 243 253 263 274 290 310 309 288 282 281 283 283 284 282
216 215 210 212 216 213 210 210 211 210 212 215 216 221 225 228 235 241 248 256 260 267 284 304 301 286 281 278 277 278 279 282
214 217 213 215 218 216 215 214 214 215 217 220 222 224 228 229 235 243 246 250 256 266 274 284 285 281 277 276 276 275 274 275
214 220 217 218 222 220 220 220 220 221 222 225 228 230 233 234 237 241 242 244 250 258 263 267 275 276 267 267 267 263 264 267
217 218 218 221 220 220 222 224 224 224 226 230 232 234 236 238 241 243 242 243 247 250 257 258 263 266 257 260 261 262 263 264
221 219 219 219 221 222 223 226 228 230 232 233 236 238 239 240 242 242 241 241 247 248 248 254 254 265 261 262 263 265 261 260
221 222 223 221 220 223 225 228 232 234 235 235 237 240 241 242 242 244 242 246 248 246 247 250 257 264 259 263 260 262 261 258
221 222 225 223 222 226 229 231 234 236 238 237 238 242 243 244 245 245 245 247 246 245 242 247 260 264 255 259 254 261 259 257
220 226 227 228 228 231 234 237 239 238 241 241 241 242 244 247 249 245 244 248 248 242 239 242 251 249 256 255 250 259 256 255
223 230 231 234 237 239 240 243 244 244 246 246 245 244 244 241 247 244 243 248 247 244 243 246 252 257 250 251 249 255 250 252
228 233 238 243 246 252 256 253 254 253 250 249 247 248 245 244 252 246 246 250 248 248 245 246 256 253 248 246 249 251 250 253
231 236 248 257 261 265 268 264 264 263 260 257 256 254 249 247 251 247 247 249 251 251 251 253 254 250 243 246 250 248 249 249